Location: Artiguedieu
(43.5000°N, 0.5454°E)
Time: 22:50:55
(UTC+00:00)

Transit 2A Rocket - Pass Details

Date: 31 July 2021
Orbit: 586 x 916 km, 66.7° (Epoch: 19 September)

Event Time Altitude Azimuth Distance (km) Brightness Sun altitude
Rises 21:29:10 0° 336° (NNW) 3,227 9.7 -18.9°
Reaches altitude 10° 21:31:56 10° 350° (N) 2,358 8.4 -19.3°
Maximum altitude 21:36:22 25° 45° (NE) 1,638 6.8 -19.8°
Enters shadow 21:39:25 16° 86° (E) 2,067 6.9 -20.1°
Drops below altitude 10° 21:41:03 10° 98° (E) 2,512 - -20.3°
Sets 21:44:05 0° 112° (ESE) 3,488 - -20.6°
